Ortonville, MN

1:46 AM CDT on May 25, 2018 (GMT -0500)
Ortonville Municipal-Martinson

Weather History for KVVV - January, 2013

Change the Weather History Date:

Tuesday, January 1, 2013

  Actual Average (WUND) Record (WUND)
Temperature  
Mean Temperature 15 °F -  
Max Temperature 32 °F - - (-1)
Min Temperature -2 °F - - (-1)
Degree Days  
Heating Degree Days 50    
Moisture  
Dew Point 8 °F    
Average Humidity 83    
Maximum Humidity 93    
Minimum Humidity 78    
Precipitation  
Precipitation 0.00 in - - ()
Sea Level Pressure  
Sea Level Pressure 30.10 in    
Wind  
Wind Speed 4 mph (South)    
Max Wind Speed 13 mph    
Max Gust Speed 18 mph    
Visibility 10 miles    
Events Snow    
Averages and records for this station are not official NWS values.
T = Trace of Precipitation, MM = Missing Value Source: NWS Daily Summary

Daily Weather History Graph

Daily Weather History Graph

Search for Another Location

Airport or City:

Astronomy

Jan. 01, 2013 Rise Set
Actual Time 8:05 AM CST 4:53 PM CST
Civil Twilight 7:31 AM CST 5:27 PM CST
Nautical Twilight 6:53 AM CST 6:05 PM CST
Astronomical Twilight 6:18 AM CST 6:40 PM CST
Moon 9:40 PM CST (1/1) 10:05 AM CST (1/1)
Length of Visible Light 9h 56m
Length of Day
8h 48m
Waning Gibbous, 83% of the Moon is Illuminated
Jan 1
Waning Gibbous
Jan 4
Last Quarter
Jan 11
New
Jan 18
First Quarter
Jan 26
Full

Hourly Weather History & Observations

Time (CST) Temp. Windchill Dew Point Humidity Pressure Visibility Wind Dir Wind Speed Gust Speed Precip Events Conditions
12:14 AM -2.2 °F - -5.8 °F 85% 30.24 in 10.0 mi Calm Calm - N/A   Overcast
12:34 AM -0.4 °F - -5.8 °F 78% 30.24 in 10.0 mi Calm Calm - N/A   Overcast
12:54 AM -0.4 °F - -5.8 °F 78% 30.23 in 10.0 mi Calm Calm - N/A   Overcast
1:14 AM -0.4 °F - -4.0 °F 85% 30.23 in 10.0 mi Calm Calm - N/A   Overcast
1:34 AM -0.4 °F - -4.0 °F 85% 30.23 in 10.0 mi Calm Calm - N/A   Overcast
1:54 AM -0.4 °F - -4.0 °F 85% 30.23 in 10.0 mi Calm Calm - N/A   Overcast
2:13 AM -0.4 °F - -4.0 °F 85% 30.23 in 10.0 mi Calm Calm - N/A   Overcast
2:34 AM 1.4 °F -9.9 °F -4.0 °F 78% 30.23 in 10.0 mi SE 5.8 mph - N/A   Overcast
3:13 AM -0.4 °F -13.4 °F -4.0 °F 85% 30.22 in 10.0 mi SE 6.9 mph - N/A   Overcast
3:34 AM 1.4 °F -8.3 °F -2.2 °F 85% 30.21 in 10.0 mi SSE 4.6 mph - N/A   Overcast
4:13 AM 1.4 °F -9.9 °F -2.2 °F 85% 30.20 in 10.0 mi SE 5.8 mph - N/A   Overcast
4:34 AM 1.4 °F - -2.2 °F 85% 30.20 in 10.0 mi Calm Calm - N/A   Overcast
4:54 AM 3.2 °F -10.3 °F -0.4 °F 85% 30.19 in 10.0 mi SE 8.1 mph - N/A   Overcast
5:14 AM 3.2 °F -9.1 °F -0.4 °F 85% 30.19 in 10.0 mi SE 6.9 mph - N/A   Overcast
5:34 AM 5.0 °F -5.6 °F 1.4 °F 85% 30.18 in 10.0 mi SSE 5.8 mph - N/A   Overcast
5:53 AM 5.0 °F -6.9 °F 1.4 °F 85% 30.17 in 10.0 mi SSE 6.9 mph - N/A Snow Light Snow
6:14 AM 5.0 °F -6.9 °F 1.4 °F 85% 30.18 in 10.0 mi SSE 6.9 mph - N/A   Overcast
6:34 AM 6.8 °F -5.9 °F 1.4 °F 79% 30.18 in 10.0 mi SSE 8.1 mph - N/A   Overcast
6:53 AM 6.8 °F -4.8 °F 3.2 °F 85% 30.18 in 10.0 mi SE 6.9 mph - N/A   Overcast
7:14 AM 6.8 °F -4.8 °F 3.2 °F 85% 30.17 in 10.0 mi SE 6.9 mph - N/A   Overcast
7:34 AM 6.8 °F -4.8 °F 3.2 °F 85% 30.17 in 10.0 mi SE 6.9 mph - N/A   Overcast
7:54 AM 6.8 °F -0.1 °F 3.2 °F 85% 30.17 in 10.0 mi ESE 3.5 mph - N/A   Overcast
8:14 AM 6.8 °F -2.0 °F 3.2 °F 85% 30.16 in 10.0 mi ESE 4.6 mph - N/A   Overcast
8:34 AM 32.0 °F 27.5 °F - N/A% 30.16 in 10.0 mi ESE 4.6 mph - N/A   Overcast
8:54 AM 8.6 °F -1.3 °F 3.2 °F 79% 30.16 in 10.0 mi ESE 5.8 mph - N/A   Overcast
9:14 AM 8.6 °F -1.3 °F 3.2 °F 79% 30.16 in 10.0 mi SE 5.8 mph - N/A   Overcast
9:33 AM 8.6 °F 0.1 °F 3.2 °F 79% 30.16 in 10.0 mi SE 4.6 mph - N/A   Overcast
9:54 AM 8.6 °F -2.6 °F 5.0 °F 85% 30.15 in 10.0 mi SE 6.9 mph - N/A   Overcast
10:14 AM 8.6 °F - 5.0 °F 85% 30.15 in 10.0 mi Calm Calm - N/A   Overcast
10:33 AM 10.4 °F 2.2 °F 5.0 °F 79% 30.15 in 10.0 mi SE 4.6 mph - N/A   Overcast
10:54 AM 10.4 °F 2.2 °F 6.8 °F 85% 30.14 in 10.0 mi SE 4.6 mph - N/A   Overcast
11:14 AM 12.2 °F - 6.8 °F 79% 30.13 in 10.0 mi Calm Calm - N/A   Overcast
11:33 AM 14.0 °F 6.5 °F 8.6 °F 79% 30.12 in 10.0 mi SSE 4.6 mph - N/A   Overcast
11:54 AM 15.8 °F 7.2 °F 10.4 °F 79% 30.11 in 10.0 mi South 5.8 mph - N/A   Overcast
12:13 PM 21.2 °F 12.6 °F 15.8 °F 80% 30.09 in 10.0 mi SW 6.9 mph - N/A   Overcast
12:34 PM 21.2 °F 10.1 °F 17.6 °F 86% 30.09 in 10.0 mi SW 10.4 mph 18.4 mph N/A   Overcast
12:54 PM 23.0 °F 12.4 °F 17.6 °F 80% 30.08 in 10.0 mi SW 10.4 mph - N/A   Overcast
1:13 PM 23.0 °F 11.7 °F 17.6 °F 80% 30.08 in 10.0 mi SW 11.5 mph 17.3 mph N/A   Overcast
1:33 PM 23.0 °F 11.1 °F 17.6 °F 80% 30.07 in 10.0 mi SW 12.7 mph 17.3 mph N/A   Overcast
1:54 PM 23.0 °F 13.1 °F 17.6 °F 80% 30.07 in 10.0 mi SSW 9.2 mph - N/A   Overcast
2:14 PM 23.0 °F 14.7 °F 17.6 °F 80% 30.06 in 10.0 mi SSW 6.9 mph - N/A   Overcast
2:34 PM 23.0 °F 13.1 °F 17.6 °F 80% 30.05 in 10.0 mi SSW 9.2 mph - N/A   Overcast
2:54 PM 23.0 °F 13.1 °F 17.6 °F 80% 30.05 in 10.0 mi SW 9.2 mph - N/A   Overcast
3:14 PM 23.0 °F 12.4 °F 17.6 °F 80% 30.05 in 10.0 mi SW 10.4 mph - N/A   Overcast
3:34 PM 23.0 °F 14.7 °F 17.6 °F 80% 30.05 in 10.0 mi SSW 6.9 mph - N/A   Overcast
4:14 PM 23.0 °F 17.0 °F 17.6 °F 80% 30.04 in 10.0 mi SSW 4.6 mph - N/A   Overcast
4:34 PM 23.0 °F 18.4 °F 17.6 °F 80% 30.04 in 10.0 mi South 3.5 mph - N/A   Overcast
4:54 PM 23.0 °F 14.7 °F 17.6 °F 80% 30.04 in 10.0 mi SW 6.9 mph - N/A   Overcast
5:13 PM 23.0 °F 17.0 °F 17.6 °F 80% 30.03 in 10.0 mi SW 4.6 mph - N/A   Overcast
5:34 PM 23.0 °F 17.0 °F 17.6 °F 80% 30.03 in 10.0 mi SW 4.6 mph - N/A   Overcast
5:54 PM 21.2 °F 11.7 °F 17.6 °F 86% 30.02 in 10.0 mi SW 8.1 mph - N/A   Overcast
6:13 PM 21.2 °F 13.6 °F 17.6 °F 86% 30.01 in 10.0 mi SW 5.8 mph - N/A   Overcast
6:34 PM 21.2 °F - 17.6 °F 86% 30.01 in 10.0 mi Calm Calm - N/A   Overcast
6:54 PM 21.2 °F - 17.6 °F 86% 30.00 in 10.0 mi Calm Calm - N/A   Overcast
7:14 PM 21.2 °F - 17.6 °F 86% 30.00 in 10.0 mi Calm Calm - N/A   Overcast
7:34 PM 21.2 °F 14.9 °F 17.6 °F 86% 30.00 in 10.0 mi SSW 4.6 mph - N/A   Overcast
7:54 PM 21.2 °F 12.6 °F 17.6 °F 86% 29.99 in 10.0 mi SW 6.9 mph - N/A   Overcast
8:13 PM 19.4 °F 11.5 °F 15.8 °F 86% 29.99 in 10.0 mi SW 5.8 mph - N/A   Overcast
8:34 PM 19.4 °F 12.8 °F 15.8 °F 86% 29.97 in 10.0 mi SW 4.6 mph - N/A   Scattered Clouds
8:53 PM 17.6 °F 10.7 °F 15.8 °F 93% 29.97 in 10.0 mi SSW 4.6 mph - N/A   Clear
9:13 PM 17.6 °F 10.7 °F 14.0 °F 86% 29.97 in 10.0 mi SSW 4.6 mph - N/A   Clear
9:34 PM 15.8 °F 8.6 °F 12.2 °F 86% 29.96 in 10.0 mi SSW 4.6 mph - N/A   Clear
9:54 PM 15.8 °F 8.6 °F 12.2 °F 86% 29.95 in 10.0 mi South 4.6 mph - N/A   Clear
10:13 PM 15.8 °F 8.6 °F 10.4 °F 79% 29.96 in 10.0 mi South 4.6 mph - N/A   Clear
10:34 PM 14.0 °F 6.5 °F 10.4 °F 86% 29.95 in 10.0 mi SSW 4.6 mph - N/A   Clear
10:54 PM 12.2 °F 4.3 °F 10.4 °F 92% 29.95 in 10.0 mi SSW 4.6 mph - N/A   Clear
11:14 PM 12.2 °F 4.3 °F 8.6 °F 85% 29.96 in 10.0 mi SW 4.6 mph - N/A   Clear
11:34 PM 12.2 °F - 8.6 °F 85% 29.96 in 10.0 mi Calm Calm - N/A   Clear
11:53 PM 12.2 °F 6.1 °F 8.6 °F 85% 29.95 in 10.0 mi WSW 3.5 mph - N/A   Clear